Notices

What's New in latest Release from April 7th, 2021:

- Updated Glossary, including Speed of Maximum Gust, and Total Hourly Precipitation

- Updated national and regional climate services offices contacts and prices information

- Addition of station inventory lists for 1981-2010, 1971-2000, and 1961-1990 Normals.

If you haven't already, please take our survey and provide feedback about our website: https://eccc.sondage-survey.ca/f/LanguageSelection.aspx?s=442ca660-fcf1-47c0-95a9-59707d6fd709

Hourly Data Report for July 02, 2020

TORONTO CITY
ONTARIO
Current Station Operator: ECCC - MSC

43°40'00.000" N
79°24'00.000" W
112.50 m
6158355
71508
XTO

Download Data

Hourly Data (July 2020)
Hourly Data Report for July 2, 2020
TIME
LST
Temp Definition
°C
Dew Point Definition
°C
Rel Hum Definition
%
Precip. Amount Definition
mm

Wind Dir Definition
10's deg

Wind Spd Definition
km/h
Visibility Definition
km
Stn Press Definition
kPa
Hmdx Definition


Wind Chill Definition


Weather Definition


00:00 24.4 13.1 49 0.0       99.96 27   LegendNANA
01:00 24.0 14.0 54 0.0       99.97 27   LegendNANA
02:00 24.2 14.1 53 0.0       99.99 28   LegendNANA
03:00 24.2 13.2 50 0.0       99.99 27   LegendNANA
04:00 23.8 13.2 51 0.0       99.97 27   LegendNANA
05:00 23.5 13.1 52 0.0       99.98 26   LegendNANA
06:00 23.9 12.9 50 0.0       100.00 27   LegendNANA
07:00 25.9 12.5 43 0.0       100.03 28   LegendNANA
08:00 28.4 10.5 33 0.0       100.05 30   LegendNANA
09:00 29.7 11.6 33 0.0       100.03 32   LegendNANA
10:00 31.4 12.5 32 0.0       100.02 34   LegendNANA
11:00 33.7 11.2 26 0.0       99.97 36   LegendNANA
12:00 33.8 9.8 23 0.0       99.96 35   LegendNANA
13:00 34.3 10.5 23 0.0       99.92 36   LegendNANA
14:00 34.9 11.6 24 0.2       99.90 37   LegendNANA
15:00 34.9 11.2 24 0.0       99.88 37   LegendNANA
16:00 34.8 10.6 23 0.0       99.87 36   LegendNANA
17:00 33.9 10.2 24 0.3       99.86 35   LegendNANA
18:00 32.5 10.9 27 0.0       99.87 34   LegendNANA
19:00 31.5 12.2 31 0.0       99.88 34   LegendNANA
20:00 30.6 13.0 34 0.0       99.87 33   LegendNANA
21:00 29.9 10.7 31 0.0       99.93 32   LegendNANA
22:00 27.9 10.6 34 0.0       99.95 29   LegendNANA
23:00 26.8 10.6 36 0.0       99.95 28   LegendNANA

Notes on Data Quality.

Legend

  • E = Estimated
  • M = Missing
  • NA = Not Available*
  • [empty] = Indicates an unobserved value
Date modified: